Flag for U.S.A. Weather past 2 weeks in Huntsville, Alabama, U.S.A.

Now
62 °F

Fog.


Feels Like: 62 °F
Forecast: 60 / 84 °F
Wind: No wind

Location: Huntsville International / Jones Field

Current Time: Sep 30, 2014 at 6:58:30 AM

Latest Report: Sep 30, 2014 at 5:53 AM


Visibility: 6 mi

Pressure: 29.94 "Hg

Humidity: 90%

Dew point: 59 °F

Location of HuntsvilleLocation

Historic Weather in Huntsville — Graph

°F

Huntsville temperature yesterday

Maximum temperature yesterday: 89 °F (at 4:53 PM)
Minimum temperature yesterday: 67 °F (at 10:53 PM)
Average temperature yesterday: 76 °F

Past Weeks' High & Low Weather Summary

 TemperatureHumidityPressure
High91 °F (Sep 16, 2:53 PM)94% (Sep 30, 3:00 AM)30.30 "Hg (Sep 30, 3:00 AM)
Low50 °F (Sep 23, 4:53 AM)28% (Sep 22, 4:53 PM)29.88 "Hg (Sep 29, 4:53 PM)
Average73 °F66%30.07 "Hg
* Reported Sep 15 4:53 AM — Sep 30 4:53 AM, Huntsville, Weather by CustomWeather, © 2014

Note: Actual official high and low records may vary slightly from our data, if they occured in-between our weather recording intervals... More about our weather records

Advertising

Huntsville weather history for previous 24 hours

 ConditionsComfort  
Time TempWeatherWind HumidityBarometerVisibility
4:53 AM
Sep 30
63 °FClear.No wind90%29.93 "Hg8 mi
3:53 AM63 °FFog.No wind87%29.92 "Hg5 mi
3:00 AM63 °FFog.No wind94%29.94 "Hg1 mi
1:53 AM65 °FClear.No wind87%29.92 "Hg10 mi
12:53 AM67 °FClear.No wind85%29.92 "Hg10 mi
11:53 PM
Sep 29
67 °FClear.No wind85%29.93 "Hg10 mi
10:53 PM67 °FClear.No wind85%29.93 "Hg10 mi
9:53 PM71 °FClear.3 mph76%29.93 "Hg10 mi
8:53 PM73 °FPassing clouds.3 mph71%29.93 "Hg10 mi
7:53 PM74 °FPassing clouds.5 mph69%29.91 "Hg10 mi
6:53 PM77 °FPassing clouds.6 mph58%29.90 "Hg10 mi
5:53 PM85 °FPassing clouds.3 mph40%29.89 "Hg10 mi
4:53 PM89 °FPassing clouds.6 mph34%29.88 "Hg10 mi
3:53 PM87 °FScattered clouds.8 mph37%29.90 "Hg10 mi
2:53 PM88 °FScattered clouds.5 mph35%29.91 "Hg10 mi
1:53 PM86 °FScattered clouds.5 mph42%29.93 "Hg9 mi
12:53 PM86 °FScattered clouds.9 mph45%29.96 "Hg10 mi
11:53 AM82 °FScattered clouds.6 mph53%29.98 "Hg10 mi
10:53 AM82 °FScattered clouds.3 mph55%30.00 "Hg10 mi
9:53 AM77 °FScattered clouds.3 mph66%30.01 "Hg10 mi
8:53 AM72 °FPartly sunny.No wind78%30.02 "Hg9 mi
7:53 AM68 °FScattered clouds.No wind87%30.01 "Hg9 mi
6:53 AM68 °FPassing clouds.No wind87%30.00 "Hg9 mi
Weather by CustomWeather, © 2014

See weather overviewHow to use our weather pages